カタログに戻る

KUIPER-00480

運用中通信LEO
NORAD 68876·PAYLOAD·🇺🇸 United States

打ち上げ Apr 28, 2026 から Cape Canaveral Space Force Station

Loading…

次のパス (今後24時間)

TLE

最新Source: CelesTrak SupGP

元期: Sep 14, 2026, 21:52 UTC

1 68876C 26095N   26257.91118056  .00038083  00000+0  49834-2 0  2578
2 68876  51.9027 193.9178 0000853  93.6255 144.2072 14.79907981    11

AllMySatでKUIPER-00480をリアルタイム追跡

Download on the App Store